Mather AFB, CA

1:18 AM PDT on May 26, 2018 (GMT -0700)
Mather

Weather History for KMHR - February, 2013

Change the Weather History Date:

Friday, February 1, 2013

  Actual Average Record
Temperature  
Mean Temperature 48 °F -  
Max Temperature 64 °F 54 °F 69 °F (2005)
Min Temperature 32 °F 37 °F 30 °F (2011)
Degree Days  
Heating Degree Days 17    
Moisture  
Dew Point 39 °F    
Average Humidity 82    
Maximum Humidity 100    
Minimum Humidity 42    
Precipitation  
Precipitation 0.00 in - - ()
Sea Level Pressure  
Sea Level Pressure 30.21 in    
Wind  
Wind Speed 0 mph (NE)    
Max Wind Speed 7 mph    
Max Gust Speed -    
Visibility 9 miles    
Events Fog    
Averages and records for this station are not official NWS values.
T = Trace of Precipitation, MM = Missing Value Source: NWS Daily Summary

Daily Weather History Graph

Daily Weather History Graph

Search for Another Location

Airport or City:

Astronomy

Feb. 01, 2013 Rise Set
Actual Time 7:10 AM PST 5:27 PM PST
Civil Twilight 6:42 AM PST 5:55 PM PST
Nautical Twilight 6:10 AM PST 6:27 PM PST
Astronomical Twilight 5:39 AM PST 6:58 PM PST
Moon 11:35 PM PST (2/1) 9:51 AM PST (2/1)
Length of Visible Light 11h 13m
Length of Day
10h 17m
Waning Gibbous, 69% of the Moon is Illuminated
Feb 1
Waning Gibbous
Feb 3
Last Quarter
Feb 9
New
Feb 17
First Quarter
Feb 25
Full

Hourly Weather History & Observations

Time (PST) Temp. Windchill Dew Point Humidity Pressure Visibility Wind Dir Wind Speed Gust Speed Precip Events Conditions
12:46 AM 41.0 °F - 39.2 °F 93% 30.21 in 10.0 mi Calm Calm - N/A   Clear
1:46 AM 35.6 °F - 35.6 °F 100% 30.21 in 10.0 mi Calm Calm - N/A   Clear
2:46 AM 35.6 °F - 35.6 °F 100% 30.21 in 10.0 mi Calm Calm - N/A   Clear
3:46 AM 33.8 °F - 33.8 °F 100% 30.20 in 10.0 mi Calm Calm - N/A Fog Shallow Fog
4:46 AM 32.0 °F - 32.0 °F 100% 30.21 in 8.0 mi Calm Calm - N/A Fog Shallow Fog
5:46 AM 33.8 °F - 33.8 °F 100% 30.21 in 4.0 mi Calm Calm - N/A   Clear
6:45 AM 32.0 °F - 32.0 °F 100% 30.22 in 6.0 mi Calm Calm - N/A Fog Shallow Fog
7:45 AM 32.0 °F - 32.0 °F 100% 30.23 in 10.0 mi Calm Calm - N/A   Clear
8:58 AM 44.6 °F 43.1 °F 41.0 °F 87% 30.24 in 10.0 mi NE 3.5 mph - N/A   Clear
10:47 AM 53.6 °F - 41.0 °F 62% 30.23 in 10.0 mi Calm Calm - N/A   Clear
11:48 AM 55.4 °F - 42.8 °F 63% 30.22 in 10.0 mi Calm Calm - N/A   Clear
12:48 PM 59.0 °F - 44.6 °F 59% 30.19 in 10.0 mi Calm Calm - N/A   Clear
1:45 PM 60.8 °F - 41.0 °F 48% 30.17 in 10.0 mi Calm Calm - N/A   Clear
2:47 PM 62.6 °F - 41.0 °F 45% 30.15 in 10.0 mi Calm Calm - N/A   Partly Cloudy
3:45 PM 64.4 °F - 41.0 °F 42% 30.15 in 10.0 mi Calm Calm - N/A   Partly Cloudy
6:45 PM 53.6 °F - 46.4 °F 77% 30.18 in 10.0 mi Calm Calm - N/A   Scattered Clouds
8:55 PM 46.4 °F 42.9 °F 44.6 °F 93% 30.21 in 10.0 mi East 6.9 mph - N/A   Scattered Clouds
9:45 PM 42.8 °F - 41.0 °F 93% 30.22 in 10.0 mi Calm Calm - N/A   Scattered Clouds
10:55 PM 44.6 °F - 41.0 °F 87% 30.22 in 10.0 mi Calm Calm - N/A   Scattered Clouds
11:45 PM 42.8 °F 41.1 °F 39.2 °F 87% 30.23 in 10.0 mi NNE 3.5 mph - N/A   Scattered Clouds